{"data":{"norad_id":60016,"intl_designator":"2024-111A","name":"STARLINK-31978","alt_names":[],"object_type":"PAYLOAD","status":"ACTIVE","operator":null,"country":"US","launch_date":"2024-06-08","launch_site_code":"AFETR","launch_vehicle":null,"mission":null,"orbit_class":"UNKNOWN","rcs_meters":null,"size_class":null,"mass_kg":null,"dimensions":null,"purposes":["comms"],"wikipedia_slug":null,"has_3d_model":false,"image_url":null,"decayed_at":null,"tle_current":{"epoch":"2026-05-25T02:46:19.267392Z","epoch_age_seconds":68578,"freshness":"FRESH","line1":"1 60016U 24111A   26145.11550078  .00000409  00000+0  24932-4 0  9993","line2":"2 60016  53.1616  80.7122 0001172  97.6609 262.4526 15.31708236110639","mean_motion":15.31708236,"eccentricity":0.0001172,"inclination_deg":53.1616,"raan_deg":80.7122,"arg_perigee_deg":97.6609,"mean_anomaly_deg":262.4526,"bstar":2.4932e-5,"rev_number":11063,"period_min":94.012682451882,"perigee_km":469.91275874176,"apogee_km":471.51812975469,"semimajor_km":6848.8524442482,"source":"CELESTRAK","updated_at":"2026-05-25T13:38:19.130806Z"}}}